Hourly Weather Al Khums

Today, 2 December, Wednesday

Time Temperature Precipitation Wind Pressure Humidity
00:00 +17°C° 0.1 mm 2 mps 761 mmHg 75%
01:00 +17°C° 0 mm 3 mps 760 mmHg 76%
02:00 +17°C° 0 mm 4 mps 760 mmHg 77%
03:00 +17°C° 0 mm 4 mps 760 mmHg 78%
04:00 +15°C° 0 mm 5 mps 759 mmHg 79%
05:00 +15°C° 0 mm 5 mps 759 mmHg 79%
06:00 +15°C° 0 mm 6 mps 759 mmHg 79%
07:00 +15°C° 0 mm 6 mps 759 mmHg 79%
08:00 +16°C° 0 mm 6 mps 759 mmHg 69%
09:00 +17°C° 0 mm 6 mps 759 mmHg 59%
10:00 +20°C° 0 mm 6 mps 759 mmHg 49%
11:00 +21°C° 0 mm 6 mps 759 mmHg 45%
12:00 +21°C° 0 mm 5 mps 758 mmHg 40%
13:00 +22°C° 0 mm 4 mps 757 mmHg 36%
14:00 +22°C° 0 mm 4 mps 757 mmHg 36%
15:00 +22°C° 0 mm 4 mps 757 mmHg 37%
16:00 +22°C° 0 mm 3 mps 756 mmHg 37%
17:00 +21°C° 0 mm 2 mps 757 mmHg 41%
18:00 +20°C° 0 mm 2 mps 757 mmHg 45%
19:00 +20°C° 0 mm 1 mps 757 mmHg 49%
20:00 +20°C° 0 mm 1 mps 757 mmHg 49%
21:00 +19°C° 0 mm 1 mps 757 mmHg 50%
22:00 +19°C° 0 mm 1 mps 758 mmHg 50%
23:00 +18°C° 0 mm 2 mps 757 mmHg 49%

Tomorrow, 3 December, Thursday

Time Temperature Precipitation Wind Pressure Humidity
00:00 +17°C° 0 mm 3 mps 757 mmHg 48%
01:00 +17°C° 0 mm 4 mps 756 mmHg 47%
02:00 +17°C° 0 mm 4 mps 756 mmHg 47%
03:00 +16°C° 0 mm 5 mps 756 mmHg 47%
04:00 +15°C° 0 mm 6 mps 756 mmHg 48%
05:00 +15°C° 0 mm 6 mps 756 mmHg 48%
06:00 +15°C° 0 mm 6 mps 755 mmHg 48%
07:00 +15°C° 0 mm 7 mps 755 mmHg 48%
08:00 +16°C° 0 mm 7 mps 756 mmHg 45%
09:00 +18°C° 0 mm 7 mps 756 mmHg 42%
10:00 +20°C° 0 mm 8 mps 756 mmHg 39%
11:00 +20°C° 0 mm 8 mps 755 mmHg 40%
12:00 +19°C° 0 mm 9 mps 755 mmHg 41%
13:00 +21°C° 0 mm 10 mps 755 mmHg 41%
14:00 +19°C° 0.1 mm 10 mps 755 mmHg 45%
15:00 +18°C° 0.1 mm 11 mps 755 mmHg 48%
16:00 +18°C° 0.1 mm 12 mps 755 mmHg 52%
17:00 +17°C° 0.1 mm 10 mps 755 mmHg 56%
18:00 +16°C° 0.1 mm 9 mps 755 mmHg 61%
19:00 +15°C° 0.1 mm 8 mps 756 mmHg 66%
20:00 +15°C° 0 mm 8 mps 756 mmHg 66%
21:00 +15°C° 0 mm 7 mps 756 mmHg 66%
22:00 +15°C° 0 mm 7 mps 757 mmHg 66%
23:00 +14°C° 0 mm 7 mps 757 mmHg 65%

Day after tomorrow, 4 December, Friday

Time Temperature Precipitation Wind Pressure Humidity
00:00 +14°C° 0 mm 7 mps 756 mmHg 65%
01:00 +14°C° 0 mm 7 mps 756 mmHg 64%
02:00 +12°C° 0 mm 7 mps 756 mmHg 64%
03:00 +12°C° 0 mm 7 mps 756 mmHg 64%
04:00 +12°C° 0 mm 7 mps 756 mmHg 64%
05:00 +13°C° 0 mm 6 mps 756 mmHg 64%
06:00 +13°C° 0 mm 6 mps 756 mmHg 64%
07:00 +13°C° 0 mm 5 mps 756 mmHg 65%
08:00 +14°C° 0 mm 5 mps 756 mmHg 60%
09:00 +15°C° 0 mm 4 mps 756 mmHg 56%
10:00 +17°C° 0 mm 4 mps 756 mmHg 51%
11:00 +18°C° 0 mm 4 mps 756 mmHg 46%
12:00 +19°C° 0 mm 4 mps 755 mmHg 40%
13:00 +19°C° 0 mm 4 mps 755 mmHg 34%
14:00 +20°C° 0 mm 4 mps 754 mmHg 34%
15:00 +20°C° 0 mm 4 mps 754 mmHg 34%
16:00 +20°C° 0 mm 4 mps 754 mmHg 35%
17:00 +19°C° 0 mm 4 mps 754 mmHg 38%
18:00 +18°C° 0 mm 4 mps 754 mmHg 42%
19:00 +17°C° 0 mm 5 mps 754 mmHg 45%
20:00 +16°C° 0 mm 5 mps 754 mmHg 47%
21:00 +16°C° 0 mm 6 mps 754 mmHg 49%
22:00 +16°C° 0 mm 6 mps 754 mmHg 51%
23:00 +16°C° 0 mm 7 mps 753 mmHg 52%

5 December, Saturday

Time Temperature Precipitation Wind Pressure Humidity
00:00 +15°C° 0 mm 7 mps 753 mmHg 53%
01:00 +15°C° 0 mm 8 mps 753 mmHg 55%
02:00 +15°C° 0 mm 7 mps 752 mmHg 55%
03:00 +15°C° 0 mm 7 mps 752 mmHg 54%
04:00 +15°C° 0 mm 6 mps 752 mmHg 54%
05:00 +15°C° 0 mm 6 mps 751 mmHg 54%
06:00 +15°C° 0 mm 5 mps 751 mmHg 54%
07:00 +15°C° 0 mm 5 mps 751 mmHg 54%
08:00 +16°C° 0 mm 5 mps 751 mmHg 51%
09:00 +19°C° 0 mm 5 mps 751 mmHg 49%
10:00 +21°C° 0 mm 5 mps 752 mmHg 46%
11:00 +22°C° 0 mm 4 mps 751 mmHg 45%
12:00 +23°C° 0 mm 4 mps 751 mmHg 45%
13:00 +25°C° 0 mm 3 mps 750 mmHg 44%
14:00 +24°C° 0 mm 3 mps 750 mmHg 45%
15:00 +24°C° 0 mm 3 mps 750 mmHg 46%
16:00 +24°C° 0 mm 2 mps 750 mmHg 47%
17:00 +23°C° 0 mm 2 mps 750 mmHg 51%
18:00 +21°C° 0 mm 2 mps 751 mmHg 55%
19:00 +21°C° 0 mm 1 mps 751 mmHg 59%
20:00 +20°C° 0 mm 2 mps 751 mmHg 58%
21:00 +20°C° 0 mm 3 mps 751 mmHg 56%
22:00 +19°C° 0 mm 4 mps 751 mmHg 55%
23:00 +19°C° 0 mm 5 mps 751 mmHg 56%

6 December, Sunday

Time Temperature Precipitation Wind Pressure Humidity
00:00 +19°C° 0 mm 5 mps 751 mmHg 57%
01:00 +19°C° 0 mm 6 mps 751 mmHg 58%
02:00 +18°C° 0 mm 7 mps 751 mmHg 67%
03:00 +17°C° 0 mm 9 mps 751 mmHg 76%
04:00 +16°C° 0 mm 11 mps 751 mmHg 86%
05:00 +16°C° 0 mm 10 mps 751 mmHg 80%
06:00 +16°C° 0 mm 8 mps 752 mmHg 74%
07:00 +15°C° 0 mm 7 mps 752 mmHg 68%
08:00 +16°C° 0 mm 8 mps 753 mmHg 60%
09:00 +16°C° 0 mm 9 mps 753 mmHg 53%
10:00 +17°C° 0 mm 9 mps 754 mmHg 45%
11:00 +17°C° 0 mm 10 mps 754 mmHg 42%
12:00 +17°C° 0 mm 10 mps 754 mmHg 38%
13:00 +17°C° 0 mm 10 mps 754 mmHg 35%
14:00 +17°C° 0 mm 10 mps 755 mmHg 33%
15:00 +16°C° 0 mm 10 mps 755 mmHg 32%
16:00 +16°C° 0 mm 10 mps 755 mmHg 31%
17:00 +15°C° 0 mm 9 mps 756 mmHg 33%
18:00 +13°C° 0 mm 8 mps 757 mmHg 35%
19:00 +14°C° 0 mm 7 mps 757 mmHg 38%
20:00 +12°C° 0 mm 7 mps 758 mmHg 38%
21:00 +12°C° 0 mm 7 mps 758 mmHg 37%
22:00 +12°C° 0 mm 8 mps 759 mmHg 37%
23:00 +12°C° 0 mm 8 mps 759 mmHg 38%

7 December, Monday

Time Temperature Precipitation Wind Pressure Humidity
00:00 +11°C° 0 mm 8 mps 759 mmHg 39%
01:00 +11°C° 0 mm 8 mps 759 mmHg 39%
02:00 +10°C° 0 mm 8 mps 759 mmHg 39%
03:00 +10°C° 0 mm 8 mps 759 mmHg 39%
04:00 +10°C° 0 mm 8 mps 759 mmHg 39%
05:00 +9°C° 0 mm 7 mps 760 mmHg 39%
06:00 +9°C° 0 mm 7 mps 760 mmHg 40%
07:00 +9°C° 0 mm 7 mps 760 mmHg 40%
08:00 +10°C° 0 mm 7 mps 761 mmHg 37%
09:00 +11°C° 0 mm 6 mps 761 mmHg 34%
10:00 +13°C° 0 mm 6 mps 761 mmHg 31%
11:00 +14°C° 0 mm 6 mps 761 mmHg 29%
12:00 +15°C° 0 mm 6 mps 761 mmHg 27%
13:00 +16°C° 0 mm 5 mps 760 mmHg 25%
14:00 +16°C° 0 mm 5 mps 760 mmHg 26%
15:00 +16°C° 0 mm 5 mps 760 mmHg 27%
16:00 +16°C° 0 mm 5 mps 760 mmHg 28%
17:00 +15°C° 0 mm 4 mps 760 mmHg 31%
18:00 +14°C° 0 mm 4 mps 761 mmHg 34%
19:00 +13°C° 0 mm 4 mps 761 mmHg 36%
20:00 +13°C° 0 mm 4 mps 761 mmHg 37%
21:00 +13°C° 0 mm 4 mps 761 mmHg 38%
22:00 +13°C° 0 mm 5 mps 761 mmHg 38%
23:00 +13°C° 0 mm 5 mps 761 mmHg 39%
Show more